Weather History for KMFV - January, 2014

Change the Weather History Date:

Sunday, January 12, 2014

  Actual Average (KWAL) Record (KWAL)
Temperature  
Mean Temperature 50 °F 36 °F  
Max Temperature 60 °F 45 °F 65 °F (1980)
Min Temperature 39 °F 28 °F 7 °F (1981)
Degree Days  
Heating Degree Days 14    
Month to date heating degree days  
Since 1 July heating degree days  
Cooling Degree Days 0    
Month to date cooling degree days  
Year to date cooling degree days  
Moisture  
Dew Point 39 °F    
Average Humidity 67    
Maximum Humidity 88    
Minimum Humidity 41    
Precipitation  
Precipitation 0.00 in 0.10 in 0.81 in (2015)
Month to date precipitation 1.18  
Year to date precipitation 1.18  
Sea Level Pressure  
Sea Level Pressure 29.92 in    
Wind  
Wind Speed 8 mph (West)    
Max Wind Speed 15 mph    
Max Gust Speed 25 mph    
Visibility 10 miles    
Events      
T = Trace of Precipitation, MM = Missing Value Source: NWS Daily Summary

Daily Weather History Graph

Daily Weather History Graph

Search for Another Location

Airport or City:

Trip Planner

Search our weather history database for the weather conditions in past years. The results will help you decide how hot, cold, wet, or windy it might be!

Date:

Astronomy

Jan. 12, 2014 Rise Set
Actual Time 7:17 AM EST 5:05 PM EST
Civil Twilight 6:48 AM EST 5:34 PM EST
Nautical Twilight 6:16 AM EST 6:06 PM EST
Astronomical Twilight 5:45 AM EST 6:38 PM EST
Moon 2:31 PM EST (1/12) 4:14 AM EST (1/12)
Length of Visible Light 10h 45m
Length of Day
9h 47m
Waxing Gibbous, 89% of the Moon is Illuminated
Jan 12
Waxing Gibbous
Jan 15
Full
Jan 24
Last Quarter
Jan 30
New
Feb 6
First Quarter

Hourly Weather History & Observations

Time (EST) Temp. Windchill Dew Point Humidity Pressure Visibility Wind Dir Wind Speed Gust Speed Precip Events Conditions
12:15 AM 60.8 °F - 55.4 °F 82% 29.57 in 10.0 mi WSW 13.8 mph 21.9 mph N/A   Mostly Cloudy
12:36 AM 60.8 °F - 55.4 °F 82% 29.58 in 10.0 mi West 11.5 mph 18.4 mph N/A   Mostly Cloudy
12:55 AM 59.0 °F - 53.6 °F 82% 29.59 in 10.0 mi West 12.7 mph 19.6 mph N/A   Scattered Clouds
1:15 AM 57.2 °F - 53.6 °F 88% 29.59 in 10.0 mi West 10.4 mph 17.3 mph N/A   Clear
1:35 AM 57.2 °F - 51.8 °F 82% 29.59 in 10.0 mi West 8.1 mph - N/A   Clear
1:55 AM 57.2 °F - 51.8 °F 82% 29.60 in 10.0 mi West 6.9 mph - N/A   Clear
2:15 AM 57.2 °F - 51.8 °F 82% 29.60 in 10.0 mi WSW 4.6 mph - N/A   Clear
2:35 AM 57.2 °F - 51.8 °F 82% 29.61 in 10.0 mi West 8.1 mph - N/A   Clear
2:55 AM 57.2 °F - 51.8 °F 82% 29.62 in 10.0 mi West 9.2 mph - N/A   Mostly Cloudy
3:15 AM 57.2 °F - 48.2 °F 72% 29.59 in 10.0 mi WNW 15.0 mph 18.4 mph N/A   Overcast
3:35 AM 55.4 °F - 46.4 °F 72% 29.62 in 10.0 mi West 11.5 mph 17.3 mph N/A   Scattered Clouds
3:55 AM 53.6 °F - 46.4 °F 77% 29.65 in 10.0 mi West 6.9 mph 16.1 mph N/A   Mostly Cloudy
4:15 AM 53.6 °F - 46.4 °F 77% 29.67 in 10.0 mi WNW 8.1 mph - N/A   Overcast
4:36 AM 53.6 °F - 46.4 °F 77% 29.68 in 10.0 mi NNW 11.5 mph 18.4 mph N/A   Overcast
4:55 AM 51.8 °F - 39.2 °F 62% 29.70 in 10.0 mi NNW 10.4 mph 25.3 mph N/A   Scattered Clouds
5:18 AM 51.8 °F - 39.2 °F 62% 29.72 in 10.0 mi NW 9.2 mph 17.3 mph N/A   Mostly Cloudy
5:35 AM 51.8 °F - 39.2 °F 62% 29.74 in 10.0 mi NW 6.9 mph - N/A   Overcast
5:55 AM 50.0 °F - 39.2 °F 66% 29.74 in 10.0 mi NW 4.6 mph - N/A   Mostly Cloudy
6:15 AM 48.2 °F - 39.2 °F 71% 29.76 in 10.0 mi WNW 5.8 mph - N/A   Mostly Cloudy
6:35 AM 48.2 °F - 39.2 °F 71% 29.78 in 10.0 mi WNW 6.9 mph - N/A   Overcast
6:55 AM 48.2 °F - 39.2 °F 71% 29.80 in 10.0 mi NW 8.1 mph - N/A   Overcast
7:15 AM 48.2 °F - 39.2 °F 71% 29.82 in 10.0 mi NW 5.8 mph - N/A   Mostly Cloudy
7:35 AM 46.4 °F 45.2 °F 37.4 °F 71% 29.83 in 10.0 mi WNW 3.5 mph - N/A   Clear
7:55 AM 46.4 °F 43.5 °F 39.2 °F 76% 29.85 in 10.0 mi WNW 5.8 mph - N/A   Clear
8:15 AM 48.2 °F - 39.2 °F 71% 29.86 in 10.0 mi WNW 5.8 mph - N/A   Clear
8:35 AM 51.8 °F - 39.2 °F 62% 29.87 in 10.0 mi NW 5.8 mph - N/A   Clear
8:55 AM 51.8 °F - 37.4 °F 58% 29.90 in 10.0 mi WNW 8.1 mph - N/A   Clear
9:15 AM 53.6 °F - 39.2 °F 58% 29.91 in 10.0 mi WNW 9.2 mph - N/A   Clear
9:35 AM 51.8 °F - 41.0 °F 67% 29.93 in 10.0 mi West 6.9 mph - N/A   Clear
9:56 AM 53.6 °F - 39.2 °F 58% 29.92 in 10.0 mi WNW 8.1 mph - N/A   Clear
10:15 AM 53.6 °F - 39.2 °F 58% 29.94 in 10.0 mi WNW 6.9 mph - N/A   Clear
10:35 AM 53.6 °F - 37.4 °F 54% 29.95 in 10.0 mi NW 12.7 mph 18.4 mph N/A   Clear
10:55 AM 53.6 °F - 35.6 °F 51% 29.95 in 10.0 mi NW 12.7 mph - N/A   Clear
11:15 AM 53.6 °F - 35.6 °F 51% 29.95 in 10.0 mi NW 13.8 mph 19.6 mph N/A   Clear
11:36 AM 53.6 °F - 35.6 °F 51% 29.95 in 10.0 mi NNW 10.4 mph - N/A   Clear
11:56 AM 53.6 °F - 35.6 °F 51% 29.96 in 10.0 mi NNW 9.2 mph - N/A   Clear
12:15 PM 53.6 °F - 35.6 °F 51% 29.96 in 10.0 mi NNW 6.9 mph - N/A   Clear
12:35 PM 53.6 °F - 33.8 °F 47% 29.96 in 10.0 mi NNW 8.1 mph - N/A   Clear
12:55 PM 53.6 °F - 33.8 °F 47% 29.97 in 10.0 mi NW 8.1 mph 16.1 mph N/A   Clear
1:15 PM 53.6 °F - 33.8 °F 47% 29.97 in 10.0 mi NNW 8.1 mph - N/A   Clear
1:35 PM 53.6 °F - 32.0 °F 44% 29.97 in 10.0 mi NNW 10.4 mph - N/A   Clear
1:56 PM 53.6 °F - 32.0 °F 44% 29.98 in 10.0 mi NNW 10.4 mph - N/A   Clear
2:15 PM 53.6 °F - 32.0 °F 44% 29.99 in 10.0 mi NNW 6.9 mph - N/A   Clear
2:35 PM 53.6 °F - 32.0 °F 44% 30.00 in 10.0 mi NW 4.6 mph - N/A   Clear
2:55 PM 53.6 °F - 33.8 °F 47% 30.00 in 10.0 mi NW 6.9 mph - N/A   Clear
3:15 PM 53.6 °F - 30.2 °F 41% 30.01 in 10.0 mi NW 4.6 mph - N/A   Clear
3:35 PM 53.6 °F - 32.0 °F 44% 30.02 in 10.0 mi NW 3.5 mph - N/A   Clear
3:55 PM 53.6 °F - 32.0 °F 44% 30.04 in 10.0 mi WNW 5.8 mph - N/A   Clear
4:15 PM 53.6 °F - 32.0 °F 44% 30.05 in 10.0 mi NW 5.8 mph - N/A   Clear
4:35 PM 51.8 °F - 33.8 °F 50% 30.06 in 10.0 mi Calm Calm - N/A   Clear
4:55 PM 50.0 °F - 35.6 °F 58% 30.06 in 10.0 mi Calm Calm - N/A   Clear
5:15 PM 46.4 °F 45.2 °F 37.4 °F 71% 30.07 in 10.0 mi SSW 3.5 mph - N/A   Clear
5:35 PM 46.4 °F 43.5 °F 37.4 °F 71% 30.07 in 10.0 mi South 5.8 mph - N/A   Clear
5:55 PM 44.6 °F 41.4 °F 37.4 °F 76% 30.07 in 10.0 mi South 5.8 mph - N/A   Clear
6:15 PM 44.6 °F - 37.4 °F 76% 30.09 in 10.0 mi Calm Calm - N/A   Clear
6:36 PM 42.8 °F - 37.4 °F 81% 30.10 in 10.0 mi Calm Calm - N/A   Clear
6:55 PM 42.8 °F 41.1 °F 35.6 °F 76% 30.11 in 10.0 mi South 3.5 mph - N/A   Clear
7:15 PM 42.8 °F 41.1 °F 35.6 °F 76% 30.12 in 10.0 mi South 3.5 mph - N/A   Clear
7:35 PM 41.0 °F 38.0 °F 35.6 °F 81% 30.12 in 10.0 mi South 4.6 mph - N/A   Clear
7:55 PM 41.0 °F 37.1 °F 35.6 °F 81% 30.13 in 10.0 mi South 5.8 mph - N/A   Clear
8:15 PM 42.8 °F 39.3 °F 35.6 °F 76% 30.14 in 10.0 mi SSW 5.8 mph - N/A   Clear
8:35 PM 42.8 °F 38.6 °F 35.6 °F 76% 30.14 in 10.0 mi SSW 6.9 mph - N/A   Clear
8:55 PM 44.6 °F 41.4 °F 35.6 °F 71% 30.14 in 10.0 mi SSW 5.8 mph - N/A   Clear
9:15 PM 44.6 °F 41.4 °F 35.6 °F 71% 30.15 in 10.0 mi SSW 5.8 mph - N/A   Clear
9:35 PM 44.6 °F 41.4 °F 35.6 °F 71% 30.15 in 10.0 mi SSW 5.8 mph - N/A   Clear
9:56 PM 44.6 °F 41.4 °F 35.6 °F 71% 30.15 in 10.0 mi SSW 5.8 mph - N/A   Clear
10:15 PM 42.8 °F 39.3 °F 35.6 °F 76% 30.15 in 10.0 mi SSW 5.8 mph - N/A   Clear
10:35 PM 41.0 °F 38.0 °F 35.6 °F 81% 30.15 in 10.0 mi South 4.6 mph - N/A   Clear
10:55 PM 41.0 °F 38.0 °F 35.6 °F 81% 30.15 in 10.0 mi South 4.6 mph - N/A   Clear
11:15 PM 42.8 °F 39.3 °F 35.6 °F 76% 30.15 in 10.0 mi SSW 5.8 mph - N/A   Clear
11:35 PM 42.8 °F 40.1 °F 35.6 °F 76% 30.15 in 10.0 mi SW 4.6 mph - N/A   Clear
11:55 PM 39.2 °F 35.9 °F 35.6 °F 87% 30.15 in 10.0 mi SSW 4.6 mph - N/A   Clear